Teterboro, NJ

6:43 PM EDT on August 23, 2016 (GMT -0400)
Teterboro

Weather History for KTEB - July, 2013

Change the Weather History Date:

Sunday, July 21, 2013

  Actual Average Record
Temperature  
Mean Temperature 82 °F -  
Max Temperature 90 °F 83 °F 102 °F (1980)
Min Temperature 75 °F 63 °F 57 °F (2001)
Cooling Degree Days 18    
Growing Degree Days 32 (Base 50)    
Moisture  
Dew Point 65 °F    
Average Humidity 62    
Maximum Humidity 90    
Minimum Humidity 37    
Precipitation  
Precipitation 0.04 in - - ()
Sea Level Pressure  
Sea Level Pressure 29.90 in    
Wind  
Wind Speed 3 mph (NE)    
Max Wind Speed 7 mph    
Max Gust Speed -    
Visibility 10 miles    
Events Rain    
Averages and records for this station are not official NWS values.
T = Trace of Precipitation, MM = Missing Value Source: NWS Daily Summary

Daily Weather History Graph

Daily Weather History Graph

Search for Another Location

Airport or City:

Trip Planner

Search our weather history database for the weather conditions in past years. The results will help you decide how hot, cold, wet, or windy it might be!

Date:

Astronomy

Jul. 21, 2013 Rise Set
Actual Time 5:42 AM EDT 8:22 PM EDT
Civil Twilight 5:10 AM EDT 8:53 PM EDT
Nautical Twilight 4:30 AM EDT 9:33 PM EDT
Astronomical Twilight 3:45 AM EDT 10:18 PM EDT
Moon 7:17 PM EDT (7/21) 4:25 AM EDT (7/21)
Length of Visible Light 15h 43m
Length of Day
14h 39m
Waxing Gibbous, 98% of the Moon is Illuminated
Jul 21
Waxing Gibbous
Jul 22
Full
Jul 29
Last Quarter
Aug 6
New
Aug 14
First Quarter

Hourly Weather History & Observations

Time (EDT) Temp. Heat Index Dew Point Humidity Pressure Visibility Wind Dir Wind Speed Gust Speed Precip Events Conditions
12:51 AM 79.0 °F - 73.0 °F 82% 29.83 in 8.0 mi Calm Calm - 0.04 in Rain Light Rain
1:51 AM 78.1 °F - 73.9 °F 87% 29.84 in 10.0 mi Calm Calm - 0.00 in Rain Light Rain
2:51 AM 77.0 °F - 73.9 °F 90% 29.84 in 10.0 mi SW 3.5 mph - 0.00 in Rain Light Rain
3:51 AM 77.0 °F - 72.0 °F 84% 29.83 in 10.0 mi Calm Calm - 0.00 in Rain Light Rain
4:51 AM 78.1 °F - 71.1 °F 79% 29.85 in 10.0 mi North 3.5 mph - 0.00 in   Clear
5:44 AM 78.8 °F - 71.6 °F 78% 29.87 in 10.0 mi NNE 6.9 mph - N/A   Mostly Cloudy
5:51 AM 77.0 °F - 71.1 °F 82% 29.87 in 10.0 mi NNE 5.8 mph - N/A   Mostly Cloudy
6:08 AM 77.0 °F - 69.8 °F 78% 29.87 in 10.0 mi NE 6.9 mph - N/A   Overcast
6:51 AM 77.0 °F - 64.0 °F 64% 29.88 in 10.0 mi NNE 5.8 mph - N/A   Clear
7:51 AM 78.1 °F - 63.0 °F 60% 29.90 in 10.0 mi NE 5.8 mph - N/A   Partly Cloudy
8:51 AM 79.0 °F - 61.0 °F 54% 29.91 in 10.0 mi ENE 4.6 mph - N/A   Mostly Cloudy
9:51 AM 81.0 °F 81.6 °F 60.1 °F 49% 29.92 in 10.0 mi Variable 5.8 mph - N/A   Mostly Cloudy
10:51 AM 82.9 °F 83.7 °F 62.1 °F 49% 29.92 in 10.0 mi East 4.6 mph - N/A   Overcast
11:51 AM 82.9 °F 83.2 °F 60.1 °F 46% 29.93 in 10.0 mi Calm Calm - N/A   Overcast
12:51 PM 86.0 °F 85.7 °F 60.1 °F 41% 29.94 in 10.0 mi Variable 6.9 mph - N/A   Mostly Cloudy
1:51 PM 87.1 °F 86.7 °F 60.1 °F 40% 29.93 in 10.0 mi Variable 4.6 mph - N/A   Clear
2:51 PM 87.1 °F 86.1 °F 57.9 °F 37% 29.93 in 10.0 mi Variable 6.9 mph - N/A   Clear
3:51 PM 87.1 °F 86.1 °F 57.9 °F 37% 29.91 in 10.0 mi Calm Calm - N/A   Clear
4:51 PM 88.0 °F 87.1 °F 59.0 °F 37% 29.91 in 10.0 mi Variable 5.8 mph - N/A   Clear
5:51 PM 86.0 °F 85.4 °F 59.0 °F 40% 29.90 in 10.0 mi ENE 5.8 mph - N/A   Clear
6:51 PM 84.9 °F 84.8 °F 60.1 °F 43% 29.91 in 10.0 mi ENE 5.8 mph - N/A   Clear
7:51 PM 82.0 °F 83.0 °F 62.1 °F 51% 29.91 in 10.0 mi South 4.6 mph - N/A   Clear
8:51 PM 79.0 °F - 66.9 °F 66% 29.93 in 10.0 mi SW 6.9 mph - N/A   Clear
9:51 PM 77.0 °F - 68.0 °F 74% 29.95 in 10.0 mi SSW 5.8 mph - N/A   Clear
10:51 PM 77.0 °F - 69.1 °F 76% 29.95 in 10.0 mi Calm Calm - N/A   Clear
11:51 PM 75.9 °F - 69.1 °F 79% 29.94 in 10.0 mi Calm Calm - N/A   Clear